Hayward, WI

11:11 AM CST on January 22, 2018 (GMT -0600)
Sawyer County

Weather History for KHYR - October, 2012

Change the Weather History Date:

Sunday, October 14, 2012

  Actual Average Record
Temperature  
Mean Temperature 38 °F -  
Max Temperature 48 °F 59 °F 71 °F (2005)
Min Temperature 27 °F 34 °F 24 °F (1970)
Degree Days  
Heating Degree Days 28    
Moisture  
Dew Point 37 °F    
Average Humidity 82    
Maximum Humidity 93    
Minimum Humidity 62    
Precipitation  
Precipitation 0.00 in - - ()
Sea Level Pressure  
Sea Level Pressure 29.79 in    
Wind  
Wind Speed 4 mph (NNE)    
Max Wind Speed 8 mph    
Max Gust Speed 18 mph    
Visibility 9 miles    
Events      
Averages and records for this station are not official NWS values.
T = Trace of Precipitation, MM = Missing Value Source: NWS Daily Summary

Daily Weather History Graph

Daily Weather History Graph

Search for Another Location

Airport or City:

Trip Planner

Search our weather history database for the weather conditions in past years. The results will help you decide how hot, cold, wet, or windy it might be!

Date:

Astronomy

Oct. 14, 2012 Rise Set
Actual Time 7:21 AM CDT 6:20 PM CDT
Civil Twilight 6:51 AM CDT 6:50 PM CDT
Nautical Twilight 6:17 AM CDT 7:25 PM CDT
Astronomical Twilight 5:42 AM CDT 7:59 PM CDT
Moon 6:20 AM CDT (10/14) 5:39 PM CDT (10/14)
Length of Visible Light 11h 58m
Length of Day
10h 58m
Waning Crescent, 1% of the Moon is Illuminated
Oct 14
Waning Crescent
Oct 15
New
Oct 21
First Quarter
Oct 29
Full
Nov 6
Last Quarter

Hourly Weather History & Observations

Time (CDT) Temp. Windchill Dew Point Humidity Pressure Visibility Wind Dir Wind Speed Gust Speed Precip Events Conditions
12:01 AM 46.4 °F 45.2 °F 44.6 °F 93% 29.77 in 5.0 mi Variable 3.5 mph - N/A   Overcast
12:21 AM 46.4 °F - 44.6 °F 93% 29.77 in 5.0 mi Calm Calm - N/A   Overcast
12:36 AM 46.4 °F 45.2 °F 44.6 °F 93% 29.77 in 7.0 mi NNE 3.5 mph - N/A   Overcast
12:53 AM 46.0 °F - 44.1 °F 93% 29.78 in 6.0 mi Calm Calm - N/A   Overcast
1:53 AM 46.0 °F 43.9 °F 43.0 °F 89% 29.80 in 10.0 mi NNE 4.6 mph - N/A   Overcast
2:31 AM 46.4 °F 44.3 °F 42.8 °F 87% 29.77 in 10.0 mi NE 4.6 mph - N/A   Overcast
2:53 AM 45.0 °F 40.6 °F 42.1 °F 90% 29.79 in 10.0 mi NE 8.1 mph - N/A   Overcast
3:53 AM 45.0 °F 42.6 °F 42.1 °F 90% 29.79 in 10.0 mi NE 4.6 mph - N/A   Overcast
4:29 AM 44.6 °F 42.2 °F 41.0 °F 87% 29.77 in 9.0 mi North 4.6 mph - N/A   Overcast
4:53 AM 44.1 °F 40.8 °F 41.0 °F 89% 29.79 in 10.0 mi Variable 5.8 mph - N/A   Overcast
5:53 AM 43.0 °F 39.5 °F 39.9 °F 89% 29.78 in 10.0 mi Variable 5.8 mph - N/A   Overcast
6:53 AM 42.1 °F 37.7 °F 39.9 °F 92% 29.78 in 8.0 mi NNE 6.9 mph - N/A   Overcast
7:53 AM 42.1 °F 37.7 °F 39.0 °F 89% 29.78 in 10.0 mi NNE 6.9 mph - N/A   Overcast
8:34 AM 42.8 °F 41.1 °F 37.4 °F 81% 29.76 in 10.0 mi Variable 3.5 mph - N/A   Overcast
8:53 AM 42.1 °F 38.4 °F 37.9 °F 85% 29.80 in 10.0 mi Variable 5.8 mph - N/A   Overcast
9:53 AM 42.1 °F 40.2 °F 37.9 °F 85% 29.79 in 9.0 mi Variable 3.5 mph - N/A   Overcast
10:43 AM 42.8 °F 39.3 °F 37.4 °F 81% 29.76 in 10.0 mi Variable 5.8 mph - N/A   Overcast
10:53 AM 43.0 °F 38.8 °F 37.9 °F 82% 29.78 in 10.0 mi NNE 6.9 mph - N/A   Overcast
11:39 AM 44.6 °F 40.7 °F 37.4 °F 76% 29.75 in 10.0 mi Variable 6.9 mph - N/A   Overcast
11:53 AM 44.1 °F 40.1 °F 37.0 °F 76% 29.78 in 10.0 mi Variable 6.9 mph 16.1 mph N/A   Overcast
12:53 PM 48.0 °F - 37.0 °F 66% 29.76 in 10.0 mi NE 8.1 mph - N/A   Mostly Cloudy
1:01 PM 48.2 °F - 35.6 °F 62% 29.74 in 10.0 mi North 8.1 mph 18.4 mph N/A   Scattered Clouds
1:09 PM 48.2 °F - 35.6 °F 62% 29.73 in 10.0 mi Variable 5.8 mph - N/A   Mostly Cloudy
1:17 PM 48.2 °F - 35.6 °F 62% 29.73 in 10.0 mi Variable 5.8 mph 18.4 mph N/A   Scattered Clouds
1:53 PM 48.0 °F - 36.0 °F 63% 29.75 in 10.0 mi Variable 5.8 mph - N/A   Partly Cloudy
2:15 PM 48.2 °F - 35.6 °F 62% 29.73 in 10.0 mi Variable 4.6 mph - N/A   Mostly Cloudy
3:53 PM 46.0 °F - 37.0 °F 71% 29.78 in 10.0 mi Calm Calm - N/A   Overcast
4:53 PM 46.0 °F 43.9 °F 37.9 °F 73% 29.81 in 10.0 mi Variable 4.6 mph - N/A   Overcast
5:40 PM 46.4 °F - 37.4 °F 71% 29.79 in 10.0 mi Calm Calm - N/A   Mostly Cloudy
5:53 PM 45.0 °F - 37.0 °F 74% 29.83 in 10.0 mi Calm Calm - N/A   Partly Cloudy
6:53 PM 37.9 °F - 35.1 °F 89% 29.83 in 10.0 mi Calm Calm - N/A   Clear
7:53 PM 33.1 °F - 30.9 °F 92% 29.85 in 10.0 mi Calm Calm - N/A   Partly Cloudy
8:53 PM 32.0 °F 28.7 °F 30.0 °F 92% 29.86 in 10.0 mi West 3.5 mph - N/A   Partly Cloudy
9:53 PM 28.9 °F - 27.0 °F 92% 29.87 in 10.0 mi Calm Calm - N/A   Clear
10:53 PM 27.0 °F - 25.0 °F 92% 29.88 in 8.0 mi Calm Calm - N/A   Clear
11:53 PM 28.0 °F - 25.0 °F 88% 29.88 in 10.0 mi Calm Calm - N/A   Clear